• In Deutschland
  • Länderverzeichnis
  • Für 7 Tage
  • Wassertemperatur
  • Satellitenkarten
  • Wetterkarte
  • Widgets
  • user-avatar
    Anmelden

    Stündliche Wetter Backnang

    Heute, 20 August, Montag

    Zeit Temperatur Niederschläge Wind Luftdruck Luftfeuchtigkeit
    00:00 +21°C° 0 mm 1 m/S 740 mmHg 72%
    01:00 +20°C° 0 mm 1 m/S 740 mmHg 74%
    02:00 +20°C° 0 mm 1 m/S 740 mmHg 75%
    03:00 +19°C° 0 mm 1 m/S 740 mmHg 77%
    04:00 +19°C° 0 mm 1 m/S 740 mmHg 79%
    05:00 +19°C° 0 mm 1 m/S 740 mmHg 78%
    06:00 +20°C° 0 mm 1 m/S 740 mmHg 76%
    07:00 +21°C° 0 mm 1 m/S 740 mmHg 75%
    08:00 +23°C° 0 mm 1 m/S 740 mmHg 69%
    09:00 +24°C° 0 mm 2 m/S 740 mmHg 63%
    10:00 +26°C° 0 mm 2 m/S 741 mmHg 58%
    11:00 +27°C° 0 mm 2 m/S 740 mmHg 55%
    12:00 +28°C° 0 mm 2 m/S 740 mmHg 53%
    13:00 +28°C° 0 mm 3 m/S 740 mmHg 51%
    14:00 +28°C° 0 mm 3 m/S 740 mmHg 52%
    15:00 +28°C° 0 mm 3 m/S 740 mmHg 53%
    16:00 +28°C° 0 mm 3 m/S 739 mmHg 54%
    17:00 +27°C° 0 mm 3 m/S 739 mmHg 60%
    18:00 +25°C° 0 mm 2 m/S 739 mmHg 67%
    19:00 +24°C° 0 mm 2 m/S 739 mmHg 73%
    20:00 +23°C° 0 mm 2 m/S 740 mmHg 77%
    21:00 +21°C° 0 mm 1 m/S 740 mmHg 81%
    22:00 +20°C° 0 mm 1 m/S 740 mmHg 85%
    23:00 +18°C° 0 mm 0 m/S 740 mmHg 87%

    Morgen, 21 August, Dienstag

    Zeit Temperatur Niederschläge Wind Luftdruck Luftfeuchtigkeit
    00:00 +17°C° 0 mm 0 m/S 740 mmHg 88%
    01:00 +17°C° 0 mm 0 m/S 740 mmHg 90%
    02:00 +17°C° 0 mm 0 m/S 740 mmHg 90%
    03:00 +17°C° 0 mm 0 m/S 740 mmHg 91%
    04:00 +16°C° 0 mm 0 m/S 740 mmHg 91%
    05:00 +17°C° 0 mm 0 m/S 740 mmHg 88%
    06:00 +18°C° 0 mm 0 m/S 740 mmHg 86%
    07:00 +19°C° 0 mm 0 m/S 740 mmHg 83%
    08:00 +22°C° 0 mm 1 m/S 740 mmHg 76%
    09:00 +24°C° 0 mm 1 m/S 740 mmHg 70%
    10:00 +26°C° 0 mm 1 m/S 740 mmHg 63%
    11:00 +27°C° 0 mm 1 m/S 740 mmHg 60%
    12:00 +28°C° 0 mm 1 m/S 740 mmHg 57%
    13:00 +29°C° 0 mm 2 m/S 740 mmHg 54%
    14:00 +28°C° 0 mm 2 m/S 739 mmHg 55%
    15:00 +28°C° 0 mm 2 m/S 739 mmHg 55%
    16:00 +28°C° 0 mm 2 m/S 739 mmHg 56%
    17:00 +27°C° 0 mm 2 m/S 739 mmHg 60%
    18:00 +26°C° 0 mm 2 m/S 739 mmHg 65%
    19:00 +25°C° 0 mm 2 m/S 739 mmHg 70%
    20:00 +24°C° 0 mm 2 m/S 739 mmHg 72%
    21:00 +23°C° 0 mm 1 m/S 739 mmHg 75%
    22:00 +22°C° 0 mm 1 m/S 739 mmHg 78%
    23:00 +21°C° 0 mm 1 m/S 739 mmHg 79%

    übermorgen, 22 August, Mittwoch

    Zeit Temperatur Niederschläge Wind Luftdruck Luftfeuchtigkeit
    00:00 +21°C° 0 mm 1 m/S 739 mmHg 81%
    01:00 +20°C° 0 mm 1 m/S 739 mmHg 82%
    02:00 +20°C° 0 mm 1 m/S 739 mmHg 84%
    03:00 +20°C° 0 mm 1 m/S 739 mmHg 85%
    04:00 +20°C° 0 mm 1 m/S 738 mmHg 87%
    05:00 +20°C° 0 mm 1 m/S 739 mmHg 85%
    06:00 +21°C° 0 mm 1 m/S 739 mmHg 84%
    07:00 +22°C° 0 mm 1 m/S 739 mmHg 82%
    08:00 +24°C° 0 mm 1 m/S 739 mmHg 75%
    09:00 +26°C° 0 mm 1 m/S 739 mmHg 69%
    10:00 +28°C° 0 mm 1 m/S 739 mmHg 62%
    11:00 +29°C° 0,1 mm 1 m/S 739 mmHg 58%
    12:00 +30°C° 0,1 mm 1 m/S 738 mmHg 54%
    13:00 +31°C° 0,1 mm 1 m/S 738 mmHg 50%
    14:00 +31°C° 0,2 mm 1 m/S 738 mmHg 50%
    15:00 +31°C° 0,2 mm 1 m/S 738 mmHg 51%
    16:00 +30°C° 0,2 mm 1 m/S 737 mmHg 51%
    17:00 +29°C° 0,2 mm 1 m/S 737 mmHg 56%
    18:00 +28°C° 0,2 mm 1 m/S 737 mmHg 61%
    19:00 +26°C° 0,2 mm 1 m/S 737 mmHg 66%
    20:00 +25°C° 0,3 mm 1 m/S 737 mmHg 70%
    21:00 +24°C° 0,3 mm 1 m/S 738 mmHg 74%
    22:00 +23°C° 0,3 mm 1 m/S 738 mmHg 78%
    23:00 +22°C° 0,1 mm 1 m/S 737 mmHg 80%

    23 August, Donnerstag

    Zeit Temperatur Niederschläge Wind Luftdruck Luftfeuchtigkeit
    00:00 +22°C° 0,1 mm 1 m/S 737 mmHg 82%
    01:00 +19°C° 0,1 mm 0 m/S 737 mmHg 84%
    02:00 +19°C° 0 mm 0 m/S 737 mmHg 85%
    03:00 +19°C° 0 mm 0 m/S 737 mmHg 86%
    04:00 +18°C° 0 mm 0 m/S 737 mmHg 87%
    05:00 +21°C° 0 mm 1 m/S 737 mmHg 86%
    06:00 +22°C° 0 mm 1 m/S 737 mmHg 84%
    07:00 +22°C° 0 mm 1 m/S 737 mmHg 82%
    08:00 +24°C° 0 mm 1 m/S 737 mmHg 74%
    09:00 +26°C° 0 mm 1 m/S 737 mmHg 67%
    10:00 +27°C° 0 mm 2 m/S 737 mmHg 59%
    11:00 +28°C° 0 mm 2 m/S 736 mmHg 54%
    12:00 +29°C° 0 mm 2 m/S 736 mmHg 50%
    13:00 +30°C° 0 mm 2 m/S 735 mmHg 45%
    14:00 +30°C° 0,1 mm 2 m/S 735 mmHg 45%
    15:00 +30°C° 0,1 mm 2 m/S 735 mmHg 44%
    16:00 +31°C° 0,1 mm 2 m/S 735 mmHg 43%
    17:00 +29°C° 0,1 mm 2 m/S 734 mmHg 49%
    18:00 +27°C° 0,1 mm 1 m/S 734 mmHg 55%
    19:00 +26°C° 0,1 mm 1 m/S 734 mmHg 61%
    20:00 +25°C° 0 mm 1 m/S 734 mmHg 63%
    21:00 +24°C° 0 mm 1 m/S 734 mmHg 66%
    22:00 +23°C° 0 mm 1 m/S 734 mmHg 68%
    23:00 +21°C° 0 mm 2 m/S 734 mmHg 70%

    24 August, Freitag

    Zeit Temperatur Niederschläge Wind Luftdruck Luftfeuchtigkeit
    00:00 +21°C° 0 mm 2 m/S 733 mmHg 73%
    01:00 +20°C° 0 mm 2 m/S 733 mmHg 75%
    02:00 +20°C° 0,1 mm 2 m/S 733 mmHg 77%
    03:00 +19°C° 0,1 mm 2 m/S 732 mmHg 78%
    04:00 +20°C° 0,1 mm 1 m/S 732 mmHg 80%
    05:00 +19°C° 0,1 mm 2 m/S 732 mmHg 79%
    06:00 +20°C° 0,1 mm 2 m/S 732 mmHg 78%
    07:00 +20°C° 0,1 mm 2 m/S 732 mmHg 77%
    08:00 +23°C° 0,2 mm 2 m/S 732 mmHg 73%
    09:00 +24°C° 0,2 mm 3 m/S 732 mmHg 69%
    10:00 +25°C° 0,2 mm 4 m/S 732 mmHg 65%
    11:00 +25°C° 0,9 mm 4 m/S 732 mmHg 69%
    12:00 +23°C° 0,9 mm 4 m/S 732 mmHg 72%
    13:00 +22°C° 0,9 mm 5 m/S 732 mmHg 76%
    14:00 +21°C° 0,6 mm 5 m/S 732 mmHg 78%
    15:00 +20°C° 0,6 mm 4 m/S 732 mmHg 80%
    16:00 +19°C° 0,6 mm 4 m/S 732 mmHg 81%
    17:00 +18°C° 0,2 mm 4 m/S 733 mmHg 82%
    18:00 +17°C° 0,2 mm 3 m/S 733 mmHg 83%
    19:00 +16°C° 0,2 mm 3 m/S 733 mmHg 84%
    20:00 +15°C° 0,1 mm 2 m/S 734 mmHg 85%
    21:00 +15°C° 0,1 mm 2 m/S 734 mmHg 86%
    22:00 +14°C° 0,1 mm 2 m/S 734 mmHg 88%
    23:00 +14°C° 0,2 mm 2 m/S 735 mmHg 89%

    25 August, Samstag

    Zeit Temperatur Niederschläge Wind Luftdruck Luftfeuchtigkeit
    00:00 +14°C° 0,2 mm 2 m/S 735 mmHg 91%
    01:00 +13°C° 0,2 mm 2 m/S 735 mmHg 92%
    02:00 +13°C° 0,8 mm 2 m/S 735 mmHg 92%
    03:00 +13°C° 0,8 mm 2 m/S 735 mmHg 93%
    04:00 +13°C° 0,8 mm 2 m/S 735 mmHg 93%
    05:00 +13°C° 0,9 mm 2 m/S 735 mmHg 92%
    06:00 +13°C° 0,9 mm 2 m/S 735 mmHg 92%
    07:00 +13°C° 0,9 mm 2 m/S 735 mmHg 91%
    08:00 +14°C° 0,7 mm 2 m/S 735 mmHg 88%
    09:00 +13°C° 0,7 mm 3 m/S 735 mmHg 86%
    10:00 +13°C° 0,7 mm 3 m/S 736 mmHg 83%
    11:00 +13°C° 1,1 mm 3 m/S 736 mmHg 81%
    12:00 +14°C° 1,1 mm 3 m/S 736 mmHg 79%
    13:00 +15°C° 1,1 mm 2 m/S 736 mmHg 77%
    14:00 +15°C° 0,4 mm 2 m/S 736 mmHg 74%
    15:00 +16°C° 0,4 mm 2 m/S 736 mmHg 70%
    16:00 +16°C° 0,4 mm 2 m/S 736 mmHg 67%
    17:00 +16°C° 0,1 mm 2 m/S 736 mmHg 68%
    18:00 +15°C° 0,1 mm 1 m/S 736 mmHg 69%
    19:00 +14°C° 0,1 mm 1 m/S 736 mmHg 70%
    20:00 +14°C° 0 mm 1 m/S 737 mmHg 71%
    21:00 +14°C° 0 mm 1 m/S 737 mmHg 71%
    22:00 +13°C° 0 mm 1 m/S 737 mmHg 72%
    23:00 +13°C° 0 mm 1 m/S 737 mmHg 73%
    Mehr zeigen